{"data":{"norad_id":43719,"epoch":"2026-09-20T03:40:23.426688Z","epoch_age_seconds":51890,"freshness":"FRESH","line1":"1 43719U 18096A   26263.15304892  .00000773  00000+0  11262-3 0  9990","line2":"2 43719  97.9750 329.1093 0001369 112.8465 247.2891 14.78659164421456","mean_motion":14.78659164,"eccentricity":0.0001369,"inclination_deg":97.975,"raan_deg":329.1093,"arg_perigee_deg":112.8465,"mean_anomaly_deg":247.2891,"bstar":0.00011262,"rev_number":42145,"period_min":97.385525688326,"perigee_km":632.59979902522,"apogee_km":634.51960158177,"semimajor_km":7011.6967003035,"source":"CELESTRAK","updated_at":"2026-09-20T09:00:33.973928Z"}}